Vorticity
7 7 8 8 9 10 10 11 11 11 10 9 8 8 8 8 9 9 10 10 12 13 14 15 15 13 10 7 7 8 8 5 3 5 6 5 4 3 5 9 11 11 8 5 4 4 6 6 5 4 4 3 2 3 2 5 5 8 13 5 2 4 -0 -1 -2 0 1 -2 5 14 14 17 23 16 4 -0 5 3 -1 3 4 5 8 6 6 8 9 8
6 7 7 8 9 11 12 14 16 17 18 18 16 14 11 10 9 9 9 9 10 10 11 13 14 15 16 14 11 8 8 9 6 4 5 6 6 4 3 5 8 11 11 7 5 4 5 6 6 5 4 3 3 3 4 7 6 8 9 3 3 4 3 1 1 -0 -3 -2 4 9 3 1 8 5 3 1 3 6 3 5 4 2 5 5 5 3 4 4
7 7 6 7 7 8 9 11 14 16 19 22 23 24 23 21 17 14 13 12 11 10 9 10 12 13 13 15 17 15 9 8 9 8 5 4 6 7 5 4 4 8 11 11 7 5 5 5 6 6 6 3 4 5 5 9 7 7 7 2 1 2 3 3 4 -0 -2 -0 3 8 4 1 5 3 5 2 -0 4 3 5 5 3 3 3 4 2 2 3
9 9 8 8 9 9 9 10 11 13 15 17 20 22 25 26 26 24 21 19 17 15 13 10 10 11 11 12 14 17 16 12 10 10 8 6 4 5 7 6 4 4 8 12 10 7 5 4 6 5 6 5 4 5 7 7 5 5 4 2 2 2 2 4 2 -1 -0 0 0 6 4 4 8 4 6 5 1 4 2 4 4 2 3 3 3 3 4 4
11 12 13 13 14 15 15 14 13 13 14 15 16 18 21 23 25 25 25 24 22 21 20 18 15 11 10 11 12 12 15 18 16 11 9 10 7 4 5 8 7 4 4 8 11 9 7 3 4 5 5 5 5 6 7 5 4 5 3 2 2 2 3 1 0 -0 -0 0 2 5 0 2 9 6 7 8 7 8 5 5 5 2 2 4 4 5 4 4
13 15 16 17 17 17 16 17 18 19 19 19 19 18 19 20 23 25 25 25 24 23 21 21 22 19 15 13 12 11 9 14 18 15 13 11 10 8 4 5 8 7 3 4 8 10 9 6 3 4 5 5 6 6 5 5 4 2 3 4 2 2 4 2 1 1 1 2 2 3 2 2 5 5 7 8 7 10 8 8 9 7 6 6 6 6 5 4
14 15 16 16 16 17 18 18 19 19 19 18 17 17 15 14 16 18 22 24 25 25 23 20 20 20 23 22 16 13 9 11 15 15 18 15 11 11 8 4 5 8 8 3 5 8 10 8 5 4 3 5 7 4 4 6 5 3 3 4 3 2 2 2 3 2 1 2 1 3 5 4 4 5 5 4 3 4 5 5 5 4 4 5 5 5 5 5
13 14 15 16 18 19 19 18 16 14 12 11 10 10 10 10 10 10 12 17 21 24 26 26 21 15 17 24 24 19 14 14 14 11 14 19 15 12 11 9 5 5 9 8 4 5 8 10 7 4 2 5 6 4 3 4 4 3 3 3 3 2 2 2 3 2 1 -0 2 4 4 3 5 6 4 1 1 1 2 3 2 2 1 1 4 4 4 5
13 14 15 17 19 18 16 15 14 11 8 6 5 5 5 7 7 8 8 8 11 15 20 26 27 23 16 16 20 21 22 20 17 12 10 15 18 16 12 11 10 6 6 9 8 4 5 9 9 5 3 4 4 4 3 2 4 3 1 3 3 1 2 3 2 3 1 0 3 4 3 3 3 6 6 0 1 4 3 4 4 3 2 0 1 3 3 4
13 14 15 18 17 11 8 10 10 6 3 2 3 5 6 8 8 9 9 7 7 7 10 16 21 27 25 22 16 14 21 24 21 18 12 11 15 18 17 12 12 10 6 7 9 8 5 5 8 9 6 4 3 4 3 2 4 3 -0 2 4 2 1 3 3 3 1 1 3 2 3 4 2 4 7 2 1 2 0 2 5 5 5 3 1 2 2 3
12 13 14 16 13 6 4 6 5 1 0 2 5 8 9 10 10 8 7 7 8 8 8 8 10 15 21 28 22 15 18 20 23 25 18 13 12 14 18 17 14 13 10 7 7 10 9 5 5 9 7 7 5 2 3 2 3 4 -0 -0 3 2 2 3 4 4 3 2 2 2 4 6 5 3 3 3 0 -0 1 1 2 3 5 5 3 3 2 2
12 13 14 14 13 9 7 6 4 2 3 5 6 8 8 8 7 6 5 4 5 7 8 8 8 7 10 19 19 20 22 16 19 26 24 19 15 14 14 17 17 16 14 10 7 7 10 9 5 6 8 9 6 2 6 4 1 4 -0 -1 3 2 3 4 3 4 3 3 3 2 3 7 9 2 -1 3 -2 -5 1 1 1 2 3 4 4 3 2 1
13 15 14 13 12 10 8 6 4 4 3 4 5 5 7 6 6 7 7 7 5 4 5 6 8 6 6 10 11 16 23 19 16 20 24 22 19 18 13 13 17 18 17 14 9 6 8 11 9 6 6 8 7 7 10 5 0 3 1 -0 1 3 6 3 1 3 3 3 2 1 5 6 6 2 -0 3 -2 -5 -0 1 2 2 2 2 2 2 3 2
15 17 15 10 7 6 4 3 2 3 4 5 7 7 7 5 4 5 6 8 9 8 7 5 6 7 6 8 7 8 15 22 21 16 19 22 23 22 16 13 15 17 19 17 13 9 6 9 11 9 6 5 8 9 7 5 4 2 2 2 1 6 9 2 0 2 1 4 1 1 8 4 0 6 6 2 -1 -1 1 1 1 2 2 2 1 2 2 3
16 18 14 7 4 3 2 2 2 4 6 7 7 7 6 6 5 5 4 5 7 9 11 9 8 8 8 10 8 5 8 18 23 19 16 17 21 25 20 15 15 16 19 19 17 13 9 7 10 12 10 6 5 7 7 7 7 4 3 5 5 8 7 2 5 4 -1 3 1 1 9 2 -2 7 7 1 0 2 2 1 1 1 3 3 2 1 2 4
17 18 12 6 3 3 2 2 2 3 4 5 6 8 9 11 10 8 6 4 6 9 12 13 12 10 11 13 10 7 6 11 20 21 19 16 15 23 24 17 16 16 17 19 19 16 13 9 8 10 12 10 5 4 7 7 8 9 9 9 10 8 4 3 9 8 1 2 2 1 4 -1 0 10 8 2 2 5 5 3 2 1 3 4 3 2 2 3
18 19 12 6 4 3 1 1 1 1 3 7 11 14 15 14 11 8 6 6 9 12 15 17 17 15 13 13 12 10 5 7 17 20 19 17 14 19 23 19 19 17 16 17 18 18 16 12 9 7 9 11 10 6 5 6 8 12 12 10 11 10 8 5 4 8 7 4 4 4 1 -3 1 9 8 4 2 4 7 5 3 3 4 4 5 4 3 4
18 20 12 6 3 1 1 0 0 2 7 13 15 15 13 11 10 9 11 16 19 20 21 20 19 18 15 14 12 13 9 7 16 20 21 19 14 16 20 19 20 19 16 16 17 17 16 15 12 10 9 9 10 8 4 4 5 7 7 8 9 8 7 5 -0 5 12 7 3 5 5 1 2 2 2 3 3 3 5 6 5 5 5 6 5 5 5 5
17 20 13 5 2 1 1 0 2 8 11 12 13 13 12 11 13 16 19 23 24 24 23 20 18 17 16 17 13 11 11 8 12 15 21 26 18 14 17 19 20 21 19 17 17 17 15 16 13 9 6 4 4 6 4 4 4 3 2 3 6 5 5 10 6 5 15 14 8 8 7 3 4 4 2 3 4 4 4 6 6 5 5 6 5 5 6 5
17 19 14 6 4 2 1 4 8 10 10 11 13 14 17 19 22 25 24 23 24 23 22 20 19 17 16 18 16 13 11 8 9 6 14 30 27 17 17 17 18 20 19 17 17 17 16 15 14 11 8 4 3 6 8 9 7 4 2 2 5 7 6 11 9 3 9 17 16 13 9 6 7 8 6 6 8 8 8 7 7 6 6 6 6 7 7 8
16 18 15 9 6 3 5 9 9 10 13 14 16 21 27 30 30 28 25 26 26 20 17 18 18 16 11 10 10 12 12 10 8 2 6 28 35 24 19 17 17 18 18 18 17 17 17 14 12 14 14 11 8 8 10 11 9 7 6 4 4 6 4 6 7 3 3 9 14 14 12 12 13 13 13 14 15 14 13 13 11 11 10 10 10 10 10 10
16 15 14 10 7 7 8 9 10 15 17 15 25 39 40 33 28 27 27 27 20 9 7 8 10 14 15 13 13 13 13 8 5 4 7 25 38 29 21 18 16 19 21 20 18 15 14 12 13 16 16 15 12 8 7 8 9 9 8 6 4 5 4 2 5 5 4 6 8 10 13 13 11 13 14 15 16 16 16 16 16 14 13 13 13 11 10 9
15 14 13 9 8 8 8 11 16 18 14 21 43 47 30 21 25 27 22 14 6 0 2 8 20 38 46 41 36 34 32 22 12 11 13 24 37 32 22 18 15 18 20 17 17 15 13 14 18 20 16 14 12 9 7 6 7 9 10 10 8 6 5 3 2 3 3 4 4 6 10 10 9 11 10 8 9 11 13 15 14 13 13 14 12 10 9 9
15 13 10 7 8 7 9 16 17 11 11 32 50 33 13 16 22 17 7 1 2 1 6 21 38 52 60 56 49 44 45 42 32 27 25 27 37 35 22 17 15 16 17 15 16 17 19 18 17 15 12 11 11 9 10 7 5 8 10 12 12 10 9 6 4 3 1 2 3 4 4 5 9 10 7 6 7 6 8 11 11 13 14 13 12 10 11 14
14 10 6 6 8 7 15 20 12 5 10 34 42 20 10 16 12 6 4 7 11 5 8 26 35 32 35 41 42 38 38 40 36 32 30 28 35 36 24 16 14 15 16 15 17 18 20 18 13 12 11 12 13 11 12 11 8 8 7 8 10 10 11 10 8 6 5 5 5 3 3 6 8 8 6 7 7 6 5 7 9 12 13 13 12 12 15 18
11 7 5 8 8 10 19 16 7 7 11 24 30 16 13 13 4 2 5 10 16 11 7 20 27 20 17 18 22 32 38 36 33 33 30 28 33 31 22 17 15 17 16 14 20 18 16 17 14 15 15 14 16 13 12 11 8 10 8 6 8 9 10 11 11 10 11 12 9 7 6 5 5 6 8 7 7 7 5 5 7 8 10 11 11 14 15 13
9 7 7 8 8 14 21 12 6 10 10 15 17 11 10 6 1 1 2 8 16 13 7 12 19 17 17 13 6 16 27 26 27 32 28 28 35 28 18 18 19 18 11 12 26 20 11 15 13 14 16 12 14 14 11 10 8 11 10 5 7 10 10 11 11 11 14 15 14 14 12 6 6 8 7 6 7 8 6 4 5 7 8 9 11 13 10 7
8 6 7 8 9 16 20 10 5 8 10 13 13 10 8 3 2 2 2 9 15 13 8 8 10 9 16 20 11 10 15 18 20 26 30 33 34 25 13 16 25 20 2 6 29 24 10 14 12 12 15 11 12 13 14 13 10 13 13 5 6 9 9 10 12 12 14 13 12 15 16 12 10 8 6 7 7 8 9 5 3 5 6 7 11 10 6 6
6 5 7 9 11 18 20 9 2 7 11 12 11 12 9 4 4 5 7 10 10 13 10 4 4 5 12 20 21 18 15 22 24 22 37 38 25 21 10 8 24 23 4 7 24 22 13 14 14 13 14 14 13 12 14 14 10 12 12 6 6 8 8 8 11 12 13 13 11 11 14 13 11 8 9 11 7 7 10 7 4 4 4 7 9 8 5 7
5 4 7 10 12 19 21 8 0 5 11 13 13 12 10 8 5 4 8 7 8 17 12 3 4 8 15 16 22 25 15 24 31 24 39 38 16 17 10 4 21 23 14 13 16 20 16 11 14 15 12 14 13 10 11 11 10 12 11 9 9 9 9 8 10 10 9 11 11 10 11 10 10 9 9 12 10 8 9 9 8 5 3 5 6 6 5 6
5 4 8 10 12 20 21 9 2 4 9 16 17 15 15 12 8 10 11 7 13 21 10 0 3 8 16 13 17 29 19 21 33 29 36 33 13 14 7 4 20 20 18 17 12 24 25 11 12 15 11 12 11 10 10 10 11 11 10 11 11 10 9 8 9 7 7 11 10 10 12 10 10 8 6 11 12 8 7 9 11 8 4 4 6 7 6 6
5 6 8 10 13 21 21 10 6 7 9 15 18 21 19 12 20 26 12 4 15 21 7 3 10 12 18 17 16 29 25 22 33 34 34 26 15 15 5 4 16 14 16 13 8 27 31 13 12 14 12 13 11 11 10 8 10 9 9 10 9 8 7 5 6 5 5 10 9 9 11 7 8 10 5 10 16 10 7 9 11 10 5 3 6 7 7 7
6 6 8 12 15 20 19 10 8 8 10 15 17 22 18 13 27 26 4 4 20 24 9 0 9 15 22 22 15 22 28 26 31 33 30 20 15 16 6 7 19 16 15 7 2 22 25 11 12 13 11 13 11 11 9 5 6 6 6 6 5 5 5 2 4 6 7 9 8 8 8 4 6 11 6 8 17 14 8 8 9 11 7 1 3 6 8 9
7 7 9 13 15 20 18 9 8 11 13 17 18 23 24 22 25 17 9 15 20 24 12 -9 -8 8 23 27 21 25 27 27 31 28 23 16 14 16 6 11 24 18 18 13 4 15 19 10 11 11 11 11 10 11 10 9 9 10 10 10 10 10 10 9 9 10 9 10 12 8 6 7 6 8 6 7 16 16 10 8 6 8 9 4 0 2 4 3
6 7 11 13 15 20 16 7 10 15 16 20 22 25 26 27 27 20 21 24 21 28 30 10 -6 2 21 28 31 38 26 19 27 22 19 16 11 14 9 14 25 15 14 20 12 11 14 13 12 11 11 11 10 11 10 11 10 9 12 10 9 10 10 10 10 11 10 6 10 10 6 8 7 6 6 7 14 16 10 9 7 7 9 8 4 2 2 -0
7 8 11 13 17 19 11 6 13 17 17 21 29 34 29 26 26 17 17 27 28 24 28 30 11 -1 17 22 27 42 26 13 21 20 22 16 6 13 10 15 27 15 9 17 18 14 7 11 18 13 11 10 9 12 9 8 8 8 11 7 6 10 12 14 8 6 10 5 5 10 8 6 6 6 7 8 14 15 10 9 8 8 9 9 7 5 4 4
7 7 12 14 18 17 6 6 17 19 14 13 20 32 34 29 22 11 13 27 27 8 3 22 15 -2 12 20 26 40 28 13 14 18 24 12 5 15 8 16 31 17 6 9 18 17 2 13 25 10 11 13 6 12 11 6 8 10 11 10 9 5 4 16 15 5 9 9 5 9 10 8 7 5 5 9 14 14 12 10 8 9 10 9 9 6 4 5
7 6 11 14 17 14 3 7 20 17 8 4 4 11 18 22 21 22 25 20 14 9 6 17 17 8 13 21 31 31 20 16 8 13 27 11 7 16 3 18 35 16 8 8 15 16 -3 13 31 7 6 17 7 9 11 7 8 8 8 11 12 2 -8 3 13 6 6 9 7 8 9 9 10 7 5 10 14 14 12 12 9 9 10 10 10 6 4 4
9 5 10 13 15 13 4 8 20 16 4 3 4 4 9 13 14 21 27 20 15 18 17 16 18 21 20 22 33 25 14 21 8 8 28 13 7 16 2 17 32 14 13 11 11 18 -3 2 31 16 3 14 12 10 10 10 10 6 6 9 9 9 4 4 10 9 6 7 7 8 10 10 9 6 5 8 13 15 13 13 11 9 10 12 10 7 7 6
11 7 10 15 14 11 7 8 18 18 6 1 4 7 11 15 16 15 17 23 27 20 15 17 17 24 27 22 28 24 14 20 9 9 29 16 6 17 9 14 24 14 15 12 8 20 4 -7 19 25 9 10 16 13 8 11 11 6 8 7 4 6 7 8 10 10 9 7 5 7 9 9 8 7 6 7 11 14 14 13 12 11 10 11 12 12 11 7
13 7 8 16 13 6 6 7 14 19 9 -0 3 6 7 14 23 25 21 22 25 16 16 25 19 17 26 26 29 25 11 13 15 13 25 20 9 16 15 11 16 14 15 13 8 15 11 -2 10 23 15 10 15 14 11 12 10 9 11 8 8 8 5 6 8 6 7 6 6 7 4 4 10 10 6 6 10 13 15 14 13 13 10 9 13 15 12 6
14 8 6 13 12 6 5 5 12 19 13 3 3 7 9 8 8 15 24 26 24 21 16 17 16 8 14 27 33 26 12 14 23 15 13 17 11 14 19 13 11 14 14 13 11 10 11 8 13 21 14 11 15 14 12 12 9 11 13 10 11 9 5 5 6 7 8 4 6 8 2 2 13 15 10 10 10 12 16 16 13 12 9 10 13 13 11 7
12 10 7 10 12 11 7 5 10 17 16 7 2 5 10 7 -2 4 27 31 24 31 28 16 17 14 17 30 28 21 18 14 18 18 13 11 8 12 19 13 10 14 13 14 15 11 9 8 13 19 13 13 18 15 12 13 11 10 11 10 10 9 9 5 2 8 12 7 6 7 3 2 7 9 9 13 15 13 15 16 16 14 11 12 13 11 10 9
10 11 8 7 13 14 8 5 10 15 17 11 5 6 6 6 7 12 34 36 13 14 29 29 28 21 22 32 23 16 23 14 8 19 19 9 6 11 14 10 10 13 12 15 16 12 10 10 15 18 10 9 13 13 15 14 11 10 9 9 8 8 12 9 2 5 10 6 5 7 6 4 5 9 10 11 16 16 15 16 15 15 14 13 13 10 9 11
7 11 9 6 11 16 11 9 11 14 18 15 9 8 4 6 13 10 22 33 12 -4 5 20 30 26 21 31 26 13 16 18 13 14 16 13 10 11 10 8 10 10 10 16 17 12 8 7 17 22 16 15 12 8 13 14 10 10 8 7 8 6 9 10 6 7 7 6 7 7 7 5 4 10 14 13 17 19 18 18 14 13 14 12 10 10 10 12
7 9 11 8 7 14 17 15 12 11 16 17 11 7 5 9 13 6 7 18 18 10 3 2 16 25 19 22 29 21 14 21 21 9 11 19 13 7 8 7 8 10 11 13 14 15 9 3 14 22 15 17 20 17 18 16 12 11 7 6 8 6 7 8 8 8 4 5 9 7 5 6 2 3 11 19 23 23 21 19 15 12 11 10 11 14 15 12
9 7 10 10 6 10 20 19 11 10 15 17 12 5 6 12 6 -0 4 9 17 26 16 -1 3 19 22 16 18 22 18 20 22 12 12 21 16 9 12 8 6 10 11 11 12 14 9 4 16 22 8 2 14 21 20 16 14 14 12 12 9 6 8 7 7 8 4 3 10 7 6 11 7 4 13 20 21 24 24 20 16 11 9 10 11 15 15 7
12 7 8 11 7 8 20 20 11 11 15 15 12 3 5 14 4 -4 5 8 11 22 22 13 7 9 17 21 19 19 16 17 23 16 12 19 17 14 18 13 8 10 10 11 12 12 9 6 13 18 10 5 13 18 15 14 15 14 13 15 13 9 9 7 5 7 6 4 5 6 6 11 8 4 12 19 18 22 23 19 17 12 9 10 11 13 10 2
15 9 6 11 9 6 17 21 11 10 16 16 14 5 4 11 4 -5 3 4 -0 7 14 17 18 7 -0 5 13 16 15 17 19 9 6 20 20 14 18 18 10 9 10 10 12 13 11 10 12 13 10 11 17 17 14 12 11 12 12 12 13 12 9 7 6 6 9 7 5 6 6 11 13 7 7 16 20 22 21 18 18 14 10 10 10 9 5 1
19 12 6 9 10 6 13 21 12 7 14 17 16 8 3 10 7 -1 4 4 -2 2 1 -0 14 23 11 -3 -3 3 7 8 9 3 5 20 23 15 17 20 13 10 12 10 10 14 14 11 13 15 11 11 15 14 15 16 13 13 15 11 10 11 7 6 5 5 10 9 7 11 8 11 19 11 2 9 16 19 21 18 15 13 10 10 10 9 6 4
20 16 9 8 11 8 10 19 17 9 11 19 20 11 2 6 10 6 4 2 -1 4 6 -2 -1 13 22 18 9 3 4 9 9 10 14 17 18 17 17 17 14 13 14 11 9 15 17 10 10 15 13 13 17 16 13 17 17 16 18 15 12 11 7 6 5 5 9 8 8 13 11 14 22 13 2 8 11 11 17 17 14 14 11 10 9 7 8 7
19 18 12 7 10 10 8 15 19 12 8 16 24 19 7 4 10 11 6 5 1 -0 7 9 -1 -4 10 29 27 8 4 16 17 14 17 17 18 23 21 16 15 15 14 12 11 14 14 8 8 15 11 6 16 22 16 14 16 17 18 16 13 11 9 8 7 6 8 7 9 11 9 16 25 14 3 9 10 7 10 12 13 14 12 10 6 4 7 9
Height
5736 5735 5734 5733 5732 5731 5730 5729 5728 5728 5727 5726 5726 5725 5725 5725 5726 5726 5727 5728 5729 5730 5731 5732 5735 5736 5739 5742 5744 5746 5749 5752 5755 5758 5761 5764 5767 5770 5774 5779 5782 5786 5790 5794 5797 5800 5804 5807 5810 5814 5817 5819 5821 5824 5826 5829 5831 5833 5835 5835 5837 5841 5844 5847 5848 5851 5853 5854 5855 5854 5854 5856 5857 5860 5862 5864 5867 5868 5871 5873 5874 5875 5876 5877 5878 5878 5879 5880
5732 5730 5729 5728 5726 5725 5724 5723 5722 5721 5720 5719 5719 5718 5718 5718 5718 5719 5719 5720 5721 5722 5723 5725 5727 5728 5731 5733 5734 5737 5741 5744 5747 5750 5753 5757 5760 5763 5768 5772 5776 5779 5784 5788 5791 5794 5797 5801 5804 5808 5811 5813 5816 5819 5821 5824 5826 5828 5830 5831 5833 5837 5842 5843 5845 5849 5851 5852 5853 5852 5852 5854 5855 5857 5860 5862 5865 5867 5869 5871 5872 5873 5874 5875 5876 5877 5877 5878
5727 5726 5724 5722 5721 5719 5717 5716 5715 5714 5713 5712 5712 5712 5712 5711 5711 5711 5712 5712 5713 5714 5715 5717 5718 5720 5723 5724 5726 5729 5732 5735 5738 5741 5746 5750 5753 5757 5761 5765 5769 5773 5777 5781 5785 5788 5791 5795 5798 5802 5805 5807 5811 5813 5816 5819 5821 5824 5826 5827 5829 5835 5839 5838 5842 5846 5848 5849 5851 5851 5851 5852 5853 5855 5858 5860 5863 5866 5868 5869 5870 5871 5872 5873 5874 5875 5876 5876
5723 5721 5719 5718 5715 5713 5711 5710 5708 5707 5706 5705 5705 5705 5705 5705 5705 5704 5704 5705 5705 5706 5707 5709 5710 5712 5714 5715 5717 5720 5724 5726 5728 5733 5738 5740 5745 5749 5753 5758 5762 5766 5770 5774 5778 5781 5785 5789 5793 5797 5799 5801 5805 5808 5811 5813 5817 5820 5820 5822 5827 5833 5835 5834 5839 5843 5844 5847 5849 5849 5849 5850 5851 5854 5857 5858 5861 5864 5865 5867 5868 5869 5870 5870 5871 5873 5874 5874
5719 5717 5715 5713 5711 5709 5707 5705 5703 5701 5700 5699 5698 5698 5698 5698 5698 5698 5698 5698 5698 5699 5700 5701 5702 5705 5706 5706 5709 5712 5716 5717 5719 5724 5727 5731 5736 5741 5746 5750 5755 5759 5763 5767 5771 5775 5779 5783 5787 5790 5792 5796 5798 5802 5806 5809 5813 5815 5814 5819 5825 5828 5829 5831 5837 5840 5841 5844 5846 5847 5848 5849 5850 5852 5854 5857 5860 5861 5862 5865 5866 5866 5868 5868 5869 5870 5871 5872
5714 5712 5710 5708 5706 5704 5702 5700 5698 5697 5695 5694 5693 5692 5692 5692 5692 5692 5692 5692 5692 5692 5692 5693 5695 5697 5697 5698 5701 5704 5706 5707 5710 5715 5718 5722 5728 5732 5738 5743 5747 5752 5755 5759 5764 5769 5773 5776 5780 5783 5787 5791 5792 5797 5802 5805 5808 5809 5810 5817 5822 5822 5824 5830 5833 5836 5838 5840 5842 5844 5845 5847 5848 5850 5851 5854 5857 5857 5859 5862 5863 5864 5866 5866 5867 5868 5869 5869
5709 5707 5705 5703 5701 5699 5698 5696 5694 5693 5691 5690 5689 5688 5687 5686 5686 5686 5686 5686 5686 5686 5686 5687 5688 5689 5689 5690 5693 5695 5697 5698 5700 5705 5709 5714 5719 5724 5729 5734 5739 5744 5748 5752 5757 5762 5766 5770 5774 5778 5782 5785 5787 5793 5799 5800 5802 5806 5808 5813 5817 5817 5821 5828 5829 5832 5836 5837 5839 5841 5842 5845 5846 5847 5849 5852 5854 5855 5858 5860 5861 5862 5863 5864 5864 5865 5866 5867
5704 5702 5700 5699 5697 5695 5694 5692 5691 5689 5688 5686 5685 5684 5683 5682 5681 5680 5680 5680 5680 5680 5680 5681 5682 5682 5681 5683 5685 5687 5688 5688 5691 5696 5701 5705 5710 5715 5720 5725 5731 5736 5741 5745 5750 5755 5760 5763 5768 5773 5776 5780 5783 5789 5793 5793 5796 5801 5805 5808 5811 5812 5818 5823 5824 5828 5832 5833 5835 5837 5839 5841 5843 5844 5846 5850 5851 5853 5856 5857 5858 5859 5861 5862 5862 5863 5864 5865
5700 5698 5696 5694 5693 5691 5690 5689 5687 5686 5685 5683 5682 5680 5679 5678 5677 5676 5675 5675 5674 5674 5674 5675 5676 5675 5675 5676 5677 5679 5679 5679 5683 5687 5692 5697 5701 5706 5711 5717 5722 5728 5733 5737 5742 5748 5753 5757 5763 5767 5770 5775 5778 5782 5785 5787 5792 5797 5802 5804 5804 5808 5815 5818 5820 5824 5827 5829 5831 5834 5836 5837 5840 5842 5843 5846 5848 5851 5853 5854 5855 5856 5858 5859 5859 5860 5861 5862
5696 5694 5692 5690 5689 5688 5687 5685 5684 5683 5682 5680 5678 5677 5675 5674 5672 5671 5670 5669 5669 5669 5668 5669 5669 5669 5670 5669 5671 5671 5668 5670 5675 5679 5683 5688 5693 5698 5702 5708 5714 5719 5725 5730 5734 5740 5746 5752 5757 5759 5763 5768 5771 5775 5778 5783 5789 5793 5798 5800 5798 5804 5810 5813 5816 5820 5823 5825 5828 5831 5832 5833 5836 5839 5840 5842 5845 5848 5849 5851 5853 5854 5855 5856 5857 5858 5858 5859
5692 5690 5688 5687 5686 5684 5683 5682 5681 5679 5678 5676 5674 5673 5671 5669 5668 5666 5665 5664 5664 5663 5663 5663 5663 5663 5663 5664 5666 5662 5659 5664 5669 5671 5674 5680 5685 5689 5694 5700 5705 5710 5716 5721 5727 5733 5739 5744 5748 5752 5757 5761 5765 5770 5774 5780 5785 5787 5792 5794 5793 5798 5804 5808 5811 5815 5818 5820 5825 5828 5828 5829 5832 5835 5837 5837 5842 5845 5847 5849 5850 5851 5852 5853 5855 5855 5856 5857
5689 5687 5685 5684 5682 5681 5680 5678 5677 5675 5673 5671 5670 5668 5667 5665 5663 5661 5660 5659 5658 5657 5657 5656 5656 5657 5657 5660 5659 5652 5653 5659 5661 5663 5666 5671 5676 5680 5686 5692 5696 5702 5707 5713 5718 5724 5730 5735 5741 5747 5751 5755 5761 5764 5766 5774 5780 5781 5786 5789 5789 5794 5797 5802 5807 5809 5813 5816 5821 5824 5823 5824 5827 5833 5834 5833 5839 5844 5844 5846 5847 5848 5849 5850 5852 5852 5853 5854
5686 5683 5682 5680 5679 5677 5676 5674 5673 5671 5669 5666 5664 5663 5662 5660 5658 5656 5654 5653 5652 5651 5651 5649 5649 5650 5651 5655 5651 5644 5648 5652 5652 5656 5659 5662 5667 5672 5678 5683 5688 5693 5699 5705 5710 5716 5722 5728 5735 5739 5744 5750 5754 5756 5762 5771 5775 5776 5781 5784 5786 5787 5790 5796 5802 5804 5808 5811 5815 5819 5819 5819 5824 5830 5831 5830 5836 5840 5841 5843 5844 5845 5846 5847 5849 5850 5851 5851
5683 5681 5679 5677 5676 5674 5672 5671 5669 5667 5664 5662 5659 5658 5656 5654 5652 5650 5648 5646 5645 5644 5644 5642 5643 5642 5644 5648 5643 5638 5643 5644 5645 5648 5651 5654 5658 5663 5669 5674 5680 5685 5691 5696 5701 5708 5714 5720 5727 5730 5736 5743 5745 5751 5760 5765 5768 5772 5775 5779 5780 5781 5785 5793 5798 5800 5804 5807 5810 5816 5814 5816 5823 5825 5825 5828 5832 5835 5837 5839 5841 5842 5843 5844 5845 5847 5849 5848
5680 5678 5676 5674 5673 5671 5669 5667 5665 5663 5660 5657 5654 5652 5650 5648 5645 5643 5641 5639 5638 5637 5636 5635 5635 5634 5636 5639 5635 5632 5636 5637 5639 5640 5642 5647 5650 5654 5660 5666 5672 5678 5683 5688 5694 5700 5706 5712 5718 5723 5730 5735 5739 5748 5754 5756 5762 5767 5768 5772 5775 5777 5783 5789 5791 5795 5801 5802 5806 5811 5809 5814 5822 5818 5818 5825 5829 5832 5834 5836 5838 5839 5840 5841 5842 5844 5845 5845
5677 5675 5673 5671 5670 5668 5666 5663 5661 5658 5655 5651 5648 5645 5643 5640 5638 5635 5633 5631 5630 5628 5627 5627 5627 5626 5627 5629 5627 5626 5629 5630 5632 5633 5635 5639 5642 5647 5652 5658 5664 5670 5676 5681 5686 5691 5697 5704 5709 5716 5722 5727 5734 5741 5746 5750 5755 5759 5761 5766 5771 5774 5781 5784 5784 5789 5797 5797 5800 5806 5806 5812 5817 5811 5813 5822 5826 5828 5830 5832 5834 5836 5837 5838 5839 5841 5842 5842
5675 5673 5671 5669 5667 5665 5662 5659 5656 5653 5649 5645 5642 5638 5635 5632 5630 5627 5625 5623 5621 5620 5619 5618 5618 5618 5618 5618 5618 5619 5621 5623 5624 5626 5628 5631 5635 5640 5645 5650 5655 5661 5668 5673 5677 5683 5689 5695 5701 5707 5713 5719 5727 5734 5738 5741 5745 5752 5757 5761 5767 5772 5777 5779 5778 5783 5792 5791 5795 5802 5803 5808 5809 5803 5810 5818 5822 5824 5826 5829 5831 5832 5834 5834 5836 5837 5839 5839
5672 5670 5668 5666 5663 5661 5658 5654 5651 5647 5643 5639 5635 5632 5628 5625 5622 5619 5617 5614 5613 5611 5610 5610 5609 5609 5609 5609 5610 5610 5612 5615 5617 5619 5621 5623 5628 5632 5637 5642 5647 5653 5660 5665 5669 5674 5680 5687 5693 5699 5704 5712 5719 5724 5728 5734 5742 5749 5753 5756 5762 5767 5770 5774 5772 5775 5785 5788 5792 5797 5798 5804 5802 5798 5807 5814 5818 5821 5823 5826 5827 5828 5831 5831 5833 5834 5836 5837
5669 5666 5664 5662 5660 5657 5653 5650 5646 5642 5637 5632 5628 5625 5621 5618 5614 5611 5609 5606 5604 5602 5601 5601 5602 5602 5601 5601 5601 5600 5602 5607 5609 5612 5613 5616 5620 5624 5630 5634 5639 5646 5652 5657 5662 5667 5673 5678 5682 5688 5695 5705 5713 5720 5728 5737 5744 5747 5750 5754 5759 5763 5765 5770 5768 5769 5780 5784 5788 5793 5794 5800 5799 5795 5803 5811 5814 5817 5819 5821 5823 5825 5827 5828 5830 5831 5833 5833
5665 5663 5661 5658 5655 5652 5649 5645 5641 5636 5631 5627 5622 5617 5613 5610 5606 5603 5602 5599 5596 5595 5594 5594 5595 5596 5595 5593 5590 5589 5594 5598 5602 5604 5604 5607 5612 5616 5622 5626 5632 5638 5643 5650 5655 5660 5665 5669 5673 5682 5694 5706 5714 5721 5728 5734 5737 5740 5745 5750 5755 5760 5761 5765 5765 5765 5775 5782 5785 5790 5792 5795 5796 5794 5799 5806 5809 5811 5814 5816 5818 5821 5823 5825 5826 5828 5829 5829
5662 5659 5657 5654 5651 5648 5644 5640 5635 5631 5625 5620 5615 5610 5605 5601 5599 5596 5595 5594 5590 5588 5589 5588 5587 5589 5587 5584 5580 5580 5585 5590 5593 5595 5595 5598 5604 5608 5613 5619 5624 5631 5638 5645 5649 5653 5657 5660 5671 5686 5698 5706 5710 5715 5721 5725 5729 5734 5740 5743 5749 5754 5756 5759 5761 5763 5773 5780 5782 5787 5788 5789 5792 5792 5795 5800 5803 5806 5809 5811 5815 5817 5819 5820 5822 5823 5824 5823
5659 5656 5653 5650 5648 5644 5639 5635 5630 5625 5620 5614 5607 5602 5598 5595 5593 5591 5591 5591 5587 5584 5584 5583 5580 5579 5576 5573 5571 5571 5575 5580 5584 5585 5585 5590 5596 5600 5606 5611 5617 5626 5634 5637 5640 5644 5649 5657 5675 5688 5693 5696 5700 5708 5714 5719 5724 5729 5734 5739 5744 5750 5753 5754 5756 5761 5769 5775 5779 5782 5783 5785 5788 5788 5791 5796 5799 5801 5805 5807 5809 5812 5813 5815 5817 5818 5819 5819
5656 5653 5650 5647 5643 5639 5635 5630 5625 5621 5615 5608 5601 5596 5594 5591 5590 5588 5588 5588 5585 5581 5580 5577 5572 5566 5562 5561 5561 5562 5565 5570 5575 5575 5576 5583 5588 5593 5598 5603 5612 5620 5625 5628 5633 5639 5647 5661 5675 5678 5679 5685 5693 5701 5707 5712 5718 5724 5730 5736 5741 5746 5749 5749 5752 5758 5764 5770 5776 5776 5777 5781 5782 5782 5787 5791 5794 5797 5799 5802 5804 5806 5808 5811 5813 5813 5814 5816
5652 5650 5647 5643 5639 5635 5630 5626 5621 5616 5611 5603 5597 5593 5591 5589 5587 5586 5584 5583 5582 5578 5576 5571 5565 5558 5553 5551 5552 5554 5556 5560 5565 5566 5569 5576 5581 5585 5591 5598 5606 5611 5616 5623 5631 5640 5649 5659 5663 5664 5671 5680 5687 5694 5699 5706 5713 5720 5727 5731 5736 5740 5743 5747 5749 5753 5760 5766 5770 5772 5774 5776 5777 5779 5783 5787 5789 5792 5795 5798 5800 5803 5805 5807 5808 5809 5811 5813
5650 5647 5643 5639 5635 5631 5626 5622 5617 5612 5607 5601 5595 5591 5589 5586 5585 5583 5581 5579 5577 5574 5571 5566 5560 5555 5550 5548 5548 5549 5550 5552 5556 5557 5562 5569 5574 5579 5586 5592 5598 5605 5612 5620 5628 5637 5644 5648 5653 5659 5668 5675 5681 5688 5695 5704 5710 5715 5720 5725 5730 5733 5738 5743 5744 5748 5756 5760 5764 5769 5770 5771 5773 5776 5780 5782 5785 5789 5791 5794 5797 5800 5802 5803 5804 5807 5809 5811
5647 5643 5640 5636 5631 5627 5622 5618 5614 5609 5604 5598 5594 5590 5587 5584 5582 5580 5577 5575 5573 5569 5566 5562 5557 5553 5549 5548 5547 5546 5547 5547 5549 5552 5557 5563 5567 5573 5580 5586 5594 5602 5610 5618 5624 5631 5636 5641 5650 5657 5664 5670 5677 5684 5691 5699 5705 5708 5713 5720 5725 5728 5733 5738 5739 5744 5751 5756 5761 5764 5766 5769 5771 5772 5776 5778 5782 5786 5788 5791 5793 5796 5798 5800 5802 5805 5807 5808
5644 5641 5637 5632 5628 5624 5619 5615 5611 5606 5601 5596 5592 5588 5585 5582 5579 5576 5573 5571 5569 5566 5562 5559 5555 5552 5549 5547 5546 5546 5546 5546 5547 5550 5554 5558 5562 5569 5576 5583 5591 5598 5606 5613 5618 5624 5629 5636 5645 5652 5659 5667 5673 5680 5688 5694 5700 5704 5708 5716 5721 5725 5729 5733 5737 5741 5748 5754 5756 5757 5762 5766 5766 5768 5772 5774 5778 5782 5784 5787 5789 5792 5794 5797 5800 5803 5804 5805
5642 5638 5634 5629 5624 5620 5616 5612 5608 5603 5599 5594 5590 5586 5583 5579 5576 5574 5571 5568 5566 5563 5560 5557 5554 5551 5549 5547 5546 5545 5545 5545 5546 5548 5549 5553 5558 5566 5573 5581 5589 5595 5602 5608 5614 5621 5627 5633 5641 5647 5654 5661 5668 5678 5685 5690 5696 5698 5702 5711 5717 5721 5725 5730 5734 5739 5745 5748 5748 5752 5759 5760 5760 5764 5766 5770 5774 5777 5780 5783 5785 5788 5792 5795 5798 5800 5801 5802
5639 5635 5631 5626 5622 5617 5613 5609 5605 5601 5596 5592 5588 5584 5580 5577 5574 5571 5568 5566 5563 5561 5558 5555 5552 5550 5547 5545 5544 5544 5543 5544 5545 5545 5547 5551 5556 5563 5571 5579 5586 5591 5598 5605 5613 5619 5622 5629 5636 5643 5650 5658 5665 5673 5678 5685 5692 5693 5697 5707 5714 5717 5722 5726 5731 5735 5740 5740 5743 5751 5754 5754 5757 5759 5760 5765 5769 5773 5777 5779 5782 5787 5790 5793 5796 5797 5798 5800
5637 5633 5628 5624 5619 5615 5611 5607 5603 5599 5594 5589 5585 5581 5578 5574 5571 5568 5566 5563 5561 5559 5556 5554 5551 5549 5546 5544 5543 5542 5541 5542 5542 5543 5546 5550 5556 5563 5570 5576 5583 5589 5595 5602 5609 5613 5617 5625 5632 5639 5646 5653 5660 5666 5671 5681 5687 5689 5694 5703 5709 5714 5718 5722 5727 5731 5733 5735 5741 5747 5749 5751 5754 5755 5757 5763 5768 5771 5774 5776 5780 5785 5788 5790 5792 5793 5795 5797
5634 5630 5626 5622 5617 5612 5608 5605 5601 5596 5592 5587 5582 5578 5575 5572 5569 5566 5563 5561 5559 5557 5555 5552 5550 5548 5546 5544 5542 5540 5540 5540 5541 5543 5545 5549 5556 5562 5568 5574 5580 5586 5592 5599 5605 5609 5614 5622 5628 5635 5642 5648 5655 5662 5669 5678 5681 5683 5691 5699 5704 5709 5714 5718 5723 5725 5727 5733 5740 5743 5745 5748 5749 5751 5756 5761 5765 5768 5770 5774 5779 5782 5785 5787 5789 5791 5793 5795
5633 5628 5624 5620 5615 5611 5607 5603 5599 5594 5589 5584 5579 5575 5571 5568 5566 5563 5561 5559 5557 5555 5553 5551 5548 5546 5544 5543 5541 5539 5539 5539 5540 5543 5546 5551 5557 5562 5568 5574 5579 5584 5589 5594 5602 5607 5612 5619 5626 5633 5639 5644 5652 5659 5665 5672 5675 5679 5688 5694 5699 5704 5709 5714 5717 5720 5726 5731 5735 5739 5742 5743 5745 5750 5754 5756 5759 5763 5767 5772 5776 5779 5782 5784 5786 5788 5790 5792
5631 5627 5622 5618 5614 5609 5605 5601 5597 5592 5587 5582 5577 5572 5568 5565 5563 5561 5559 5557 5555 5553 5552 5550 5547 5545 5543 5541 5540 5538 5538 5539 5540 5543 5547 5552 5558 5564 5569 5574 5578 5584 5589 5594 5600 5605 5610 5616 5623 5629 5635 5642 5649 5654 5660 5666 5670 5677 5684 5689 5695 5699 5703 5709 5713 5718 5724 5726 5729 5734 5737 5738 5743 5748 5749 5751 5755 5761 5765 5769 5772 5775 5777 5779 5782 5784 5786 5788
5630 5625 5621 5617 5613 5608 5604 5600 5596 5591 5586 5580 5574 5569 5565 5562 5561 5559 5557 5555 5553 5551 5550 5548 5546 5544 5542 5540 5539 5538 5538 5539 5541 5545 5549 5553 5558 5563 5569 5573 5577 5583 5590 5595 5599 5603 5608 5614 5620 5627 5633 5640 5647 5652 5660 5666 5671 5677 5683 5688 5692 5696 5700 5707 5711 5715 5721 5723 5725 5730 5733 5736 5741 5743 5743 5747 5753 5758 5762 5764 5767 5769 5771 5775 5777 5779 5781 5783
5629 5625 5621 5616 5612 5608 5604 5599 5595 5590 5584 5578 5572 5567 5563 5560 5558 5556 5554 5553 5551 5549 5548 5547 5546 5544 5541 5539 5538 5538 5539 5540 5542 5546 5550 5554 5559 5564 5569 5573 5577 5582 5589 5594 5598 5603 5609 5615 5622 5628 5633 5639 5645 5651 5657 5664 5669 5674 5679 5683 5688 5694 5699 5704 5708 5712 5718 5719 5720 5726 5731 5734 5736 5736 5738 5744 5750 5755 5757 5760 5763 5765 5768 5771 5773 5775 5778 5780
5628 5624 5620 5616 5611 5607 5603 5599 5594 5588 5583 5577 5571 5566 5562 5559 5557 5555 5553 5552 5550 5548 5547 5546 5545 5543 5541 5539 5538 5538 5539 5541 5543 5547 5551 5556 5561 5565 5569 5574 5578 5582 5588 5594 5598 5603 5609 5615 5619 5625 5629 5635 5642 5648 5653 5659 5665 5671 5675 5680 5686 5693 5697 5700 5704 5709 5714 5716 5718 5724 5729 5731 5732 5733 5736 5742 5748 5751 5753 5756 5759 5762 5766 5768 5770 5774 5776 5778
5628 5624 5619 5615 5611 5607 5603 5598 5593 5588 5583 5578 5572 5567 5563 5560 5557 5555 5553 5551 5549 5548 5546 5545 5544 5543 5541 5540 5539 5539 5541 5542 5545 5549 5553 5557 5561 5565 5569 5574 5577 5581 5586 5592 5597 5603 5609 5613 5617 5623 5629 5634 5639 5644 5650 5656 5661 5667 5674 5679 5684 5688 5692 5695 5701 5706 5710 5714 5717 5721 5726 5728 5730 5731 5733 5740 5746 5748 5750 5754 5756 5759 5762 5765 5768 5771 5773 5777
5628 5623 5619 5615 5611 5608 5603 5599 5594 5589 5585 5580 5575 5570 5566 5561 5558 5555 5553 5551 5549 5547 5546 5545 5544 5543 5541 5541 5540 5541 5542 5544 5547 5551 5555 5558 5562 5565 5570 5573 5577 5581 5586 5591 5596 5602 5608 5612 5616 5622 5627 5632 5637 5641 5646 5652 5656 5662 5670 5676 5679 5683 5687 5691 5696 5702 5707 5712 5714 5718 5723 5725 5727 5728 5730 5736 5742 5744 5747 5751 5753 5756 5760 5763 5766 5768 5770 5774
5627 5623 5619 5615 5611 5608 5604 5599 5595 5591 5587 5582 5577 5573 5568 5564 5561 5557 5554 5552 5550 5548 5546 5545 5543 5543 5542 5541 5541 5542 5543 5546 5550 5553 5556 5560 5563 5566 5570 5574 5578 5582 5587 5592 5596 5601 5606 5611 5616 5621 5626 5630 5634 5638 5643 5649 5654 5660 5667 5672 5677 5682 5686 5690 5696 5701 5706 5710 5712 5715 5718 5721 5724 5725 5726 5731 5737 5741 5744 5748 5751 5754 5757 5760 5763 5765 5768 5771
5627 5623 5619 5615 5612 5608 5605 5601 5597 5592 5588 5583 5579 5574 5570 5567 5563 5560 5556 5554 5551 5549 5547 5545 5544 5543 5542 5542 5542 5543 5545 5548 5551 5555 5558 5562 5565 5568 5571 5574 5578 5583 5587 5592 5597 5601 5607 5611 5615 5620 5624 5628 5632 5637 5643 5649 5654 5660 5665 5669 5674 5679 5684 5690 5695 5699 5704 5707 5710 5712 5715 5720 5721 5722 5724 5728 5734 5739 5742 5745 5749 5752 5755 5757 5759 5762 5766 5768
5627 5623 5620 5616 5613 5609 5605 5602 5598 5593 5589 5585 5581 5577 5573 5569 5565 5562 5559 5556 5553 5551 5549 5547 5546 5545 5544 5544 5544 5545 5547 5550 5553 5557 5560 5564 5567 5570 5573 5576 5580 5584 5589 5593 5597 5602 5606 5611 5615 5618 5623 5628 5633 5639 5645 5650 5655 5660 5664 5668 5672 5676 5681 5687 5691 5695 5699 5704 5707 5709 5713 5717 5717 5717 5721 5726 5731 5736 5739 5742 5746 5749 5752 5753 5756 5759 5762 5764
5627 5623 5620 5616 5613 5610 5606 5603 5599 5595 5590 5587 5583 5579 5575 5572 5568 5564 5561 5558 5555 5553 5551 5549 5548 5547 5546 5546 5546 5547 5549 5552 5556 5560 5562 5566 5570 5572 5575 5578 5581 5585 5590 5594 5598 5602 5606 5611 5616 5619 5624 5629 5634 5639 5644 5648 5653 5658 5662 5667 5671 5675 5678 5683 5687 5691 5694 5699 5702 5704 5709 5713 5712 5714 5719 5724 5728 5733 5736 5739 5743 5745 5747 5750 5752 5755 5757 5760
5627 5624 5620 5617 5614 5611 5607 5604 5600 5596 5592 5588 5584 5581 5578 5575 5572 5568 5564 5561 5558 5556 5554 5552 5551 5549 5549 5549 5549 5550 5553 5555 5559 5563 5565 5568 5571 5573 5576 5579 5582 5586 5591 5595 5599 5603 5607 5613 5617 5620 5625 5629 5633 5637 5641 5645 5649 5654 5659 5665 5670 5674 5677 5681 5684 5687 5690 5695 5698 5700 5705 5709 5710 5713 5718 5722 5725 5730 5733 5736 5739 5742 5745 5747 5749 5751 5754 5756
5627 5624 5621 5618 5615 5611 5608 5604 5600 5597 5593 5590 5587 5583 5580 5578 5575 5571 5567 5564 5562 5560 5557 5556 5554 5552 5552 5552 5552 5554 5556 5559 5561 5565 5568 5570 5573 5575 5578 5581 5584 5588 5592 5596 5600 5604 5608 5613 5617 5620 5624 5626 5630 5635 5639 5643 5648 5653 5657 5662 5666 5670 5674 5678 5681 5684 5688 5692 5695 5698 5703 5707 5710 5713 5716 5719 5723 5727 5730 5733 5735 5739 5741 5743 5745 5748 5750 5753
5627 5624 5621 5618 5615 5612 5608 5604 5601 5598 5595 5592 5589 5586 5583 5581 5578 5575 5570 5568 5566 5564 5562 5560 5558 5556 5556 5556 5557 5558 5560 5563 5565 5568 5571 5574 5576 5578 5580 5583 5586 5590 5594 5597 5601 5604 5608 5613 5618 5621 5623 5626 5630 5635 5638 5642 5646 5649 5653 5657 5662 5666 5670 5675 5679 5681 5686 5691 5694 5697 5701 5706 5710 5712 5713 5717 5720 5723 5726 5729 5732 5735 5737 5740 5742 5745 5748 5751
5628 5625 5622 5619 5615 5612 5609 5605 5602 5599 5597 5594 5591 5588 5586 5584 5581 5578 5575 5571 5569 5568 5567 5565 5563 5561 5561 5561 5562 5563 5564 5567 5569 5571 5574 5577 5579 5581 5583 5586 5588 5591 5595 5598 5601 5605 5609 5613 5617 5621 5624 5629 5634 5636 5637 5640 5644 5647 5651 5655 5660 5664 5668 5671 5675 5678 5684 5689 5691 5694 5698 5702 5707 5710 5712 5715 5718 5721 5724 5727 5729 5732 5734 5736 5739 5742 5746 5749
5628 5625 5622 5619 5616 5613 5610 5606 5603 5600 5598 5596 5593 5591 5588 5586 5584 5582 5579 5576 5573 5572 5571 5570 5569 5567 5566 5566 5566 5567 5569 5571 5573 5575 5577 5579 5582 5584 5586 5588 5590 5593 5596 5599 5602 5606 5610 5614 5617 5621 5624 5628 5631 5634 5637 5641 5646 5649 5652 5655 5658 5662 5665 5668 5672 5676 5681 5685 5687 5691 5694 5698 5704 5707 5710 5713 5715 5718 5721 5724 5727 5729 5731 5734 5737 5740 5743 5745
5628 5625 5623 5620 5617 5614 5611 5608 5605 5602 5599 5597 5595 5593 5591 5589 5587 5585 5583 5581 5578 5576 5575 5574 5574 5573 5571 5571 5571 5571 5572 5574 5575 5577 5579 5582 5584 5586 5588 5590 5592 5595 5598 5601 5604 5607 5611 5615 5618 5621 5624 5627 5629 5632 5637 5641 5645 5649 5652 5656 5660 5663 5664 5667 5670 5674 5677 5679 5683 5687 5690 5695 5701 5706 5708 5710 5712 5715 5718 5721 5724 5727 5729 5732 5735 5737 5740 5743
5628 5625 5623 5620 5618 5615 5612 5610 5607 5604 5601 5599 5597 5595 5593 5591 5589 5588 5586 5584 5582 5580 5578 5578 5578 5578 5577 5576 5576 5576 5577 5577 5578 5580 5581 5583 5585 5587 5590 5592 5594 5597 5600 5603 5605 5608 5612 5616 5619 5622 5625 5627 5630 5633 5636 5639 5642 5646 5650 5654 5658 5662 5665 5668 5670 5673 5675 5678 5683 5685 5686 5693 5700 5704 5705 5707 5709 5712 5715 5718 5721 5724 5726 5730 5732 5735 5738 5741
5628 5625 5623 5621 5618 5616 5613 5611 5609 5605 5603 5600 5598 5597 5595 5593 5592 5590 5589 5587 5585 5584 5582 5581 5580 5581 5580 5580 5580 5580 5580 5581 5581 5582 5583 5584 5586 5589 5591 5593 5596 5598 5601 5604 5607 5609 5613 5617 5619 5622 5625 5628 5630 5633 5636 5639 5642 5646 5648 5651 5655 5658 5662 5665 5668 5671 5675 5678 5682 5683 5685 5693 5699 5702 5702 5704 5707 5710 5712 5715 5718 5721 5724 5727 5730 5733 5736 5738
5628 5625 5623 5621 5619 5616 5614 5612 5610 5608 5605 5602 5600 5598 5597 5595 5594 5592 5591 5589 5588 5587 5586 5584 5583 5583 5582 5583 5583 5584 5583 5583 5583 5583 5584 5585 5587 5589 5591 5594 5596 5599 5602 5605 5608 5610 5614 5617 5619 5622 5625 5628 5631 5633 5636 5640 5643 5646 5648 5651 5655 5657 5659 5661 5665 5668 5672 5675 5679 5681 5685 5692 5698 5699 5701 5704 5706 5708 5710 5713 5715 5718 5722 5725 5728 5731 5734 5737
5628 5626 5623 5621 5619 5617 5615 5613 5612 5610 5607 5604 5601 5600 5599 5597 5596 5594 5593 5592 5591 5590 5588 5587 5586 5585 5584 5584 5585 5585 5585 5584 5584 5584 5584 5585 5587 5589 5591 5594 5597 5600 5603 5606 5608 5611 5614 5617 5620 5623 5625 5628 5631 5633 5636 5640 5642 5644 5648 5651 5655 5657 5659 5661 5664 5666 5670 5673 5676 5679 5684 5692 5696 5697 5700 5702 5704 5706 5708 5710 5713 5716 5719 5722 5725 5729 5732 5735